Bar Harbor, ME

1:29 PM EDT on September 26, 2017 (GMT -0400)
Hancock County-Bar Harbor

Weather History for KBHB - March, 2013

Change the Weather History Date:

Saturday, March 30, 2013

  Actual Average Record
Temperature  
Mean Temperature 40 °F -  
Max Temperature 51 °F 47 °F 64 °F (1981)
Min Temperature 28 °F 30 °F 18 °F (1970)
Degree Days  
Heating Degree Days 26    
Moisture  
Dew Point 26 °F    
Average Humidity 61    
Maximum Humidity 100    
Minimum Humidity 21    
Precipitation  
Precipitation 0.00 in - - ()
Sea Level Pressure  
Sea Level Pressure 29.99 in    
Wind  
Wind Speed 3 mph (NNW)    
Max Wind Speed 10 mph    
Max Gust Speed 18 mph    
Visibility 10 miles    
Events      
Averages and records for this station are not official NWS values.
T = Trace of Precipitation, MM = Missing Value Source: NWS Daily Summary

Daily Weather History Graph

Daily Weather History Graph

Search for Another Location

Airport or City:

Trip Planner

Search our weather history database for the weather conditions in past years. The results will help you decide how hot, cold, wet, or windy it might be!

Date:

Astronomy

Mar. 30, 2013 Rise Set
Actual Time 6:17 AM EDT 6:58 PM EDT
Civil Twilight 5:48 AM EDT 7:27 PM EDT
Nautical Twilight 5:13 AM EDT 8:02 PM EDT
Astronomical Twilight 4:37 AM EDT 8:39 PM EDT
Moon 11:11 PM EDT (3/30) 8:01 AM EDT (3/30)
Length of Visible Light 13h 39m
Length of Day
12h 40m
Waning Gibbous, 86% of the Moon is Illuminated
Mar 30
Waning Gibbous
Apr 3
Last Quarter
Apr 10
New
Apr 18
First Quarter
Apr 25
Full

Hourly Weather History & Observations

Time (EDT) Temp. Windchill Dew Point Humidity Pressure Visibility Wind Dir Wind Speed Gust Speed Precip Events Conditions
12:15 AM 39.2 °F 37.0 °F 30.2 °F 70% 29.97 in 10.0 mi North 3.5 mph - N/A   Partly Cloudy
12:35 AM 37.4 °F - 30.2 °F 75% 29.97 in 10.0 mi Calm Calm - N/A   Scattered Clouds
12:55 AM 37.4 °F - 30.2 °F 75% 29.97 in 10.0 mi Calm Calm - N/A   Partly Cloudy
1:15 AM 37.4 °F - 30.2 °F 75% 29.97 in 10.0 mi Calm Calm - N/A   Mostly Cloudy
1:35 AM 37.4 °F 34.9 °F 30.2 °F 75% 29.97 in 10.0 mi NW 3.5 mph - N/A   Overcast
1:55 AM 37.4 °F 34.9 °F 30.2 °F 75% 29.97 in 10.0 mi NW 3.5 mph - N/A   Overcast
2:15 AM 37.4 °F 34.9 °F 30.2 °F 75% 29.97 in 10.0 mi NNW 3.5 mph - N/A   Overcast
2:35 AM 37.4 °F - 30.2 °F 75% 29.97 in 10.0 mi Calm Calm - N/A   Overcast
2:55 AM 37.4 °F - 30.2 °F 75% 29.97 in 10.0 mi Calm Calm - N/A   Overcast
3:15 AM 35.6 °F - 30.2 °F 81% 29.97 in 10.0 mi Calm Calm - N/A   Overcast
3:35 AM 35.6 °F - 30.2 °F 81% 29.97 in 10.0 mi Calm Calm - N/A   Scattered Clouds
3:55 AM 33.8 °F - 30.2 °F 87% 29.97 in 10.0 mi Calm Calm - N/A   Clear
4:15 AM 33.8 °F - 30.2 °F 87% 29.98 in 10.0 mi Calm Calm - N/A   Clear
4:35 AM 33.8 °F - 30.2 °F 87% 29.97 in 10.0 mi Calm Calm - N/A   Clear
4:55 AM 32.0 °F - 30.2 °F 93% 29.98 in 10.0 mi Calm Calm - N/A   Clear
5:15 AM 30.2 °F - 30.2 °F 100% 29.98 in 10.0 mi Calm Calm - N/A   Clear
5:35 AM 32.0 °F - 30.2 °F 93% 29.98 in 10.0 mi Calm Calm - N/A   Clear
5:55 AM 30.2 °F - 28.4 °F 93% 29.98 in 10.0 mi Calm Calm - N/A   Clear
6:15 AM 28.4 °F - 26.6 °F 93% 29.99 in 10.0 mi Calm Calm - N/A   Clear
6:35 AM 28.4 °F - 28.4 °F 100% 29.99 in 10.0 mi Calm Calm - N/A   Clear
6:55 AM 30.2 °F - 30.2 °F 100% 30.00 in 10.0 mi Calm Calm - N/A   Clear
7:15 AM 33.8 °F - 32.0 °F 93% 30.00 in 10.0 mi Calm Calm - N/A   Clear
7:35 AM 35.6 °F - 33.8 °F 93% 30.00 in 10.0 mi Calm Calm - N/A   Clear
7:55 AM 37.4 °F - 33.8 °F 87% 30.01 in 10.0 mi Calm Calm - N/A   Clear
8:15 AM 37.4 °F - 33.8 °F 87% 30.01 in 10.0 mi Calm Calm - N/A   Clear
8:35 AM 39.2 °F 35.9 °F 33.8 °F 81% 30.01 in 10.0 mi NNW 4.6 mph - N/A   Clear
8:55 AM 41.0 °F 37.1 °F 33.8 °F 76% 30.01 in 10.0 mi NNE 5.8 mph - N/A   Clear
9:15 AM 42.8 °F 39.3 °F 32.0 °F 66% 30.01 in 10.0 mi NNW 5.8 mph - N/A   Clear
9:35 AM 44.6 °F 40.2 °F 32.0 °F 61% 30.01 in 10.0 mi NNE 8.1 mph - N/A   Clear
9:55 AM 44.6 °F 43.1 °F 30.2 °F 57% 30.00 in 10.0 mi NE 3.5 mph - N/A   Clear
10:15 AM 46.4 °F 43.5 °F 30.2 °F 53% 30.00 in 10.0 mi NNE 5.8 mph - N/A   Clear
10:55 AM 48.2 °F - 28.4 °F 46% 30.00 in 10.0 mi NW 6.9 mph - N/A   Clear
11:15 AM 48.2 °F - 26.6 °F 43% 30.00 in 10.0 mi NW 5.8 mph - N/A   Clear
11:35 AM 48.2 °F - 26.6 °F 43% 29.99 in 10.0 mi NNE 8.1 mph - N/A   Partly Cloudy
11:55 AM 48.2 °F - 23.0 °F 37% 29.98 in 10.0 mi North 10.4 mph 18.4 mph N/A   Scattered Clouds
12:15 PM 48.2 °F - 23.0 °F 37% 29.98 in 10.0 mi NW 5.8 mph - N/A   Partly Cloudy
12:35 PM 50.0 °F - 21.2 °F 32% 29.98 in 10.0 mi North 8.1 mph - N/A   Scattered Clouds
12:55 PM 50.0 °F - 19.4 °F 30% 29.97 in 10.0 mi NNW 6.9 mph - N/A   Scattered Clouds
1:15 PM 50.0 °F - 17.6 °F 28% 29.97 in 10.0 mi West 3.5 mph - N/A   Clear
1:35 PM 50.0 °F - 21.2 °F 32% 29.97 in 10.0 mi North 9.2 mph - N/A   Clear
1:55 PM 51.8 °F - 19.4 °F 28% 29.96 in 10.0 mi NW 4.6 mph 18.4 mph N/A   Clear
2:15 PM 51.8 °F - 17.6 °F 26% 29.96 in 10.0 mi NW 5.8 mph 17.3 mph N/A   Clear
2:35 PM 51.8 °F - 17.6 °F 26% 29.95 in 10.0 mi North 5.8 mph 17.3 mph N/A   Clear
2:55 PM 51.8 °F - 15.8 °F 24% 29.95 in 10.0 mi NW 6.9 mph - N/A   Clear
3:15 PM 51.8 °F - 15.8 °F 24% 29.96 in 10.0 mi WNW 5.8 mph - N/A   Clear
3:35 PM 51.8 °F - 12.2 °F 21% 29.95 in 10.0 mi NNW 4.6 mph 16.1 mph N/A   Clear
3:55 PM 51.8 °F - 15.8 °F 24% 29.95 in 10.0 mi NW 4.6 mph - N/A   Clear
4:16 PM 51.8 °F - 15.8 °F 24% 29.95 in 10.0 mi North 6.9 mph - N/A   Clear
4:35 PM 51.8 °F - 14.0 °F 22% 29.95 in 10.0 mi NNW 9.2 mph - N/A   Clear
4:55 PM 51.8 °F - 15.8 °F 24% 29.95 in 10.0 mi NW 6.9 mph - N/A   Clear
5:15 PM 51.8 °F - 15.8 °F 24% 29.96 in 10.0 mi NW 5.8 mph - N/A   Clear
5:35 PM 51.8 °F - 14.0 °F 22% 29.96 in 10.0 mi North 3.5 mph - N/A   Partly Cloudy
5:55 PM 51.8 °F - 15.8 °F 24% 29.97 in 10.0 mi North 5.8 mph - N/A   Partly Cloudy
6:15 PM 50.0 °F - 12.2 °F 22% 29.98 in 10.0 mi North 3.5 mph - N/A   Clear
6:35 PM 48.2 °F - 12.2 °F 24% 29.98 in 10.0 mi NW 3.5 mph - N/A   Clear
6:55 PM 46.4 °F 42.9 °F 26.6 °F 46% 29.99 in 10.0 mi WSW 6.9 mph - N/A   Clear
7:15 PM 44.6 °F 43.1 °F 28.4 °F 53% 30.00 in 10.0 mi WSW 3.5 mph - N/A   Clear
7:35 PM 44.6 °F 40.7 °F 28.4 °F 53% 30.00 in 10.0 mi SW 6.9 mph - N/A   Clear
7:55 PM 42.8 °F 40.1 °F 28.4 °F 57% 30.01 in 10.0 mi WSW 4.6 mph - N/A   Clear
8:15 PM 42.8 °F 39.3 °F 28.4 °F 57% 30.02 in 10.0 mi SW 5.8 mph - N/A   Clear
8:35 PM 41.0 °F 39.0 °F 28.4 °F 61% 30.02 in 10.0 mi SW 3.5 mph - N/A   Clear
8:55 PM 35.6 °F - 28.4 °F 75% 30.03 in 10.0 mi Calm Calm - N/A   Clear
9:15 PM 33.8 °F - 28.4 °F 81% 30.04 in 10.0 mi Calm Calm - N/A   Clear
9:35 PM 33.8 °F - 28.4 °F 81% 30.04 in 10.0 mi Calm Calm - N/A   Clear
9:55 PM 33.8 °F - 28.4 °F 81% 30.04 in 10.0 mi Calm Calm - N/A   Clear
10:15 PM 33.8 °F - 28.4 °F 81% 30.04 in 10.0 mi Calm Calm - N/A   Clear
10:35 PM 33.8 °F - 28.4 °F 81% 30.05 in 10.0 mi Calm Calm - N/A   Clear
10:55 PM 33.8 °F - 28.4 °F 81% 30.05 in 10.0 mi Calm Calm - N/A   Clear
11:15 PM 30.2 °F - 28.4 °F 93% 30.06 in 10.0 mi Calm Calm - N/A   Clear
11:35 PM 33.8 °F - 30.2 °F 87% 30.06 in 10.0 mi Calm Calm - N/A   Clear
11:55 PM 30.2 °F - 26.6 °F 86% 30.06 in 10.0 mi Calm Calm - N/A   Clear